Regional Weather Roundup
Issued by NWS Albany, NY

Home | Current Version | Previous Version | Graphics & Text | Print | Product List | Glossary Off
Versions: 1 2 3 4 5 6 7 8 9 10 11 12 13 14 15 16 17 18 19 20 21 22 23 24 25 26 27 28 29 30 31 32 33 34 35 36 37 38 39 40 41 42 43 44 45 46 47 48 49 50

000
ASUS41 KALY 051510
RWRALY

NEW YORK STATE HOURLY WEATHER ROUNDUP
NATIONAL WEATHER SERVICE ALBANY NY
1000 AM EST MON DEC 05 2016

NOTE: "FAIR" INDICATES FEW OR NO CLOUDS BELOW 12,000 FEET WITH NO
SIGNIFICANT WEATHER AND/OR NO OBSTRUCTIONS TO VISIBILITY.

NYZ032-033-038>043-046>054-057>066-NYZ062>081-082-084-051600-
EAST


CITY           SKY/WX    TMP DP  RH WIND       PRES   REMARKS
ALBANY         FLURRIES  32  29  88 S9        29.93F WCI  24
GLENS FALLS    LGT SNOW  29  25  85 CALM      29.92F FOG
POUGHKEEPSIE   CLOUDY    33  32  96 NW3       29.99R
MONTGOMERY     CLOUDY    33  31  92 CALM      29.97S
WHITE PLAINS   PTSUNNY   41  37  86 W7        29.98R
ISLIP          CLOUDY    43  41  93 W8        29.99S
NEW YORK CITY  CLOUDY    45  39  79 SW14G23   30.00R
CENTRAL PARK   CLOUDY    43  38  82 MISG      30.02S
$$

NYZ005>009-017-018-044>046-055-056-051600-
CENTRAL


CITY           SKY/WX    TMP DP  RH WIND       PRES   REMARKS
FULTON         CLOUDY    37  34  89 SW14      29.87R WCI  28
SYRACUSE       CLOUDY    39  35  86 SW17G23   29.87R WCI  30
ROME           LGT SNOW  32  32 100 VRB5      29.89R FOG     WCI  27
ELMIRA         CLOUDY    39  33  79 SW7       29.90S WCI  34
BINGHAMTON     CLOUDY    34  31  88 SW10      29.87R WCI  26
MONTICELLO     CLOUDY    32  30  93 SW3       29.93F
$$

NYZ026>034-041>043-087-051600-
NORTH


CITY           SKY/WX    TMP DP  RH WIND       PRES   REMARKS
WATERTOWN      LGT RAIN  35  33  92 S13G21    29.82R FOG     WCI  26
FORT DRUM      NOT AVBL
OGDENSBURG     LGT SNOW  31  30  95 E6        29.82S VSB 1   WCI  26
MASSENA        SNOW      29  26  89 NE8       29.85F VSB 1/2 WCI  21
SARANAC LAKE   LGT SNOW  26  24  92 CALM      29.77F VSB 1
PLATTSBURGH    LGT SNOW  31  26  82 S10       29.88F WCI  22
$$

NYZ001>004-010>016-019>021-085-051600-
WEST


CITY           SKY/WX    TMP DP  RH WIND       PRES   REMARKS
NIAGARA FALLS  PTSUNNY   39  31  72 W20       29.94R WCI  29
BUFFALO        PTSUNNY   38  29  70 W18G26    29.95R WCI  28
DUNKIRK        CLOUDY    40  30  67 W15G29    29.99R WCI  32
JAMESTOWN      CLOUDY    36  28  75 W12G17    29.96R WCI  27
WELLSVILLE     LGT SNOW  36  31  82 W15G22    29.92R WCI  27
ROCHESTER      CLOUDY    39  32  76 W20G32    29.91R WCI  29
PENN YAN       CLOUDY    40  31  70 W17       29.90R WCI  31
$$

             KEY
       WCI = WIND CHILL INDEX
       VSB = VISIBILITY
       HX  = HEAT INDEX
$$



USA.gov is the U.S. government's official web portal to all federal, state and local government web resources and services.